Temperature
29 31 31 31 31 32 32 32 31 30 30 30 30 30 30 29 29 28 27 27 26 26 25 25 24 23 23 23 22 22 22 21 21 21 21 20 20 20 20 20 20 20 20 20
28 30 30 30 31 31 31 31 31 30 30 30 30 29 29 28 28 27 26 26 25 25 24 24 23 23 22 22 22 22 21 21 21 20 20 20 20 20 20 20 20 19 19 19
27 29 29 29 30 31 31 31 31 30 30 29 29 28 28 28 27 26 25 25 24 24 23 23 23 23 22 22 22 21 21 21 21 20 20 20 20 20 20 20 20 19 19 19
26 27 26 29 31 31 31 31 31 30 30 29 28 27 27 27 26 25 25 24 23 23 23 23 23 22 22 22 21 21 21 21 20 20 20 20 20 19 19 19 19 19 19 19
25 26 27 29 30 30 30 29 30 29 29 28 27 27 26 25 25 24 24 23 23 23 23 22 22 22 21 21 21 20 20 20 20 20 20 20 19 19 19 19 19 19 18 18
25 25 26 27 29 30 29 27 28 28 27 27 27 27 26 24 24 24 23 23 23 22 22 22 21 21 21 21 21 20 20 20 20 20 20 19 19 19 19 18 18 18 18 18
24 24 26 27 28 28 27 25 26 26 25 25 25 24 23 23 23 22 22 22 22 21 21 21 21 21 20 20 20 20 20 19 19 19 19 19 19 19 18 18 18 17 17 17
24 24 24 25 26 25 24 24 24 24 24 23 23 22 22 22 21 21 21 21 21 21 20 20 20 20 20 20 19 19 19 19 18 18 18 18 18 18 18 17 17 17 17 17
24 23 23 23 23 23 23 23 23 23 23 22 22 21 21 20 20 20 20 20 20 20 20 19 19 19 19 19 19 18 18 18 18 18 18 18 17 17 17 17 17 17 17 16
22 23 23 23 22 22 22 22 22 22 22 22 21 21 20 20 19 19 19 20 20 19 19 19 18 18 18 18 18 18 18 17 17 17 17 17 17 17 17 16 16 16 16 16
21 21 22 21 21 21 21 21 21 21 21 21 20 20 19 19 19 19 19 19 19 18 18 18 18 18 18 18 17 17 17 17 17 17 16 16 16 16 16 16 16 16 16 15
20 20 20 20 20 20 20 20 20 20 20 20 20 19 19 18 18 18 18 18 18 18 17 17 17 17 17 17 17 17 16 16 16 16 16 16 16 16 16 16 16 15 15 15
19 19 19 19 19 19 19 19 19 19 19 19 19 18 18 18 17 17 17 17 17 17 17 16 16 16 16 16 16 16 16 16 15 15 16 16 15 15 15 15 15 15 15 15
18 18 18 18 18 18 18 18 18 18 18 18 18 18 17 17 17 16 16 16 16 16 16 16 16 15 15 15 15 15 15 15 15 15 15 15 15 15 15 15 15 15 14 14
17 17 17 17 17 17 17 17 17 17 17 17 17 17 17 16 16 16 16 15 15 15 15 15 15 15 15 15 15 15 15 15 15 15 15 15 15 15 14 14 14 14 14 13
17 17 17 17 17 17 16 16 16 16 16 16 16 16 16 15 15 15 15 15 15 15 14 14 14 14 14 14 14 14 14 15 14 14 14 14 14 14 14 14 14 13 13 13
16 16 16 16 16 16 16 16 15 15 15 15 15 15 15 14 14 14 14 14 14 14 14 14 14 14 14 14 14 14 14 14 14 14 14 14 14 13 13 13 13 13 13 12
15 15 15 15 15 15 15 15 15 14 14 14 14 14 14 14 14 14 14 14 13 13 13 13 13 13 13 13 13 13 14 14 14 14 14 13 13 13 13 13 13 12 12 12
15 15 15 14 14 14 14 14 14 14 14 13 13 13 13 13 13 13 13 13 13 13 13 13 13 13 13 13 13 13 13 13 13 13 13 13 13 13 12 12 12 12 12 11
14 14 14 14 14 14 14 13 13 13 13 13 13 13 13 12 12 13 13 12 12 12 12 12 12 12 12 12 12 13 13 13 13 13 13 13 12 12 12 12 12 11 11 11
14 14 13 13 13 13 13 13 13 12 13 13 12 12 12 12 12 12 12 12 12 12 12 12 12 12 12 12 12 12 13 13 13 12 12 12 12 12 12 11 11 11 11 10
13 13 13 13 12 12 12 12 12 12 12 12 12 12 12 12 12 12 12 12 12 12 12 12 12 12 12 12 12 12 12 12 12 12 12 11 11 11 11 11 11 10 10 10
12 12 12 12 12 12 12 12 12 12 12 12 12 12 12 12 12 12 12 12 12 12 12 11 11 11 12 11 11 11 11 11 11 11 11 11 11 10 10 10 10 9 9 9
12 12 12 12 12 12 12 12 12 12 12 12 12 12 12 12 12 12 12 11 11 11 11 11 11 11 11 11 11 11 11 11 10 10 10 10 10 9 9 9 9 9 8 8
12 12 12 12 12 12 12 12 12 11 11 12 12 11 11 11 11 11 11 11 11 11 11 11 11 11 11 11 10 10 10 10 10 9 9 9 9 9 8 8 8 8 8 8
12 12 12 12 12 12 12 12 12 12 12 11 11 11 11 11 11 11 11 11 11 11 10 10 10 10 10 10 10 10 9 9 9 9 9 8 8 8 8 8 8 7 7 7
12 12 12 12 12 12 12 11 11 11 11 11 11 11 11 11 11 11 11 10 10 10 10 10 10 10 9 9 9 9 9 9 8 8 8 8 8 8 8 7 7 7 7 7
Wind_Speed
17 17 15 15 15 15 15 14 13 9 8 5 3 2 3 5 6 7 6 6 6 6 7 8 8 7 7 6 6 6 7 7 7 7 7 6 6 5 5 5 6 4 4 4
16 18 16 17 16 16 16 14 13 10 7 2 1 1 3 4 5 5 5 5 5 5 7 7 7 7 6 6 6 6 6 7 6 6 6 6 6 5 5 4 4 4 4 4
14 16 16 18 17 16 14 13 12 10 6 3 2 0 3 4 4 5 5 4 4 3 4 6 7 6 7 6 5 5 5 5 5 5 5 5 6 5 5 5 5 4 4 4
12 14 18 13 11 10 10 8 7 4 4 3 3 2 2 3 4 4 4 4 4 3 4 5 7 7 7 6 5 5 5 5 5 5 4 4 4 4 4 4 4 3 4 3
10 15 16 12 9 9 8 6 3 2 3 3 2 2 2 4 4 3 4 4 3 3 3 4 4 6 6 5 5 4 5 4 4 5 5 4 4 4 3 3 3 4 3 3
11 14 14 7 6 6 5 5 1 1 2 2 2 3 2 5 5 5 5 4 3 3 2 3 3 4 5 4 4 4 4 4 4 4 4 4 4 3 3 3 3 3 3 3
15 15 11 6 7 7 8 2 4 4 4 2 2 3 3 4 4 4 3 4 4 3 2 2 2 3 3 2 3 3 3 3 4 4 4 4 4 3 3 3 3 3 3 3
14 15 9 6 4 3 3 5 5 4 3 4 4 4 3 3 4 3 3 3 3 3 3 3 3 3 2 1 1 2 2 2 3 3 4 4 3 3 3 3 4 3 3 3
5 4 1 5 4 4 4 4 3 3 2 3 2 1 1 2 3 2 1 2 2 2 2 3 3 2 2 1 1 1 2 3 3 3 3 3 4 4 3 3 4 3 3 3
4 3 1 2 3 4 4 3 3 3 1 1 1 1 0 0 1 2 1 1 1 2 1 2 2 2 2 2 1 1 2 2 2 3 3 3 2 3 3 3 3 2 2 2
6 6 5 3 3 3 4 4 3 3 3 2 1 1 1 0 1 1 1 1 1 1 1 1 2 2 1 1 1 1 1 2 3 3 3 3 2 0 1 0 1 2 2 2
6 5 6 6 5 3 3 4 4 4 3 3 2 2 1 1 0 1 1 0 0 1 1 1 1 1 1 1 2 1 1 2 3 3 3 3 3 2 5 3 2 2 2 2
7 7 7 8 6 4 4 5 5 5 4 4 2 1 0 0 1 2 2 1 1 2 2 1 1 1 1 1 1 1 2 2 3 3 3 4 4 3 2 2 3 3 2 4
5 5 7 7 5 4 4 4 4 4 4 3 2 1 1 1 2 3 2 1 1 1 1 1 1 1 1 1 1 2 2 3 3 3 3 4 4 4 4 3 2 0 1 2
5 6 6 5 5 4 4 3 3 4 4 3 3 1 1 2 2 3 1 1 1 1 1 1 0 0 0 1 2 2 2 2 2 3 3 2 3 3 3 3 2 1 1 1
6 6 6 6 5 4 4 4 3 4 3 3 3 2 2 2 2 2 1 0 1 1 1 1 0 0 1 2 2 3 2 3 3 3 2 2 2 2 2 2 2 2 2 1
6 6 6 5 5 5 5 4 4 4 3 3 2 2 1 2 2 1 1 1 0 1 1 1 1 1 1 1 2 2 2 2 2 2 1 1 1 1 2 2 2 2 2 3
6 5 5 5 5 5 4 4 4 4 3 3 2 1 1 2 1 1 1 1 2 2 2 2 2 1 1 1 1 2 2 1 1 0 0 1 1 2 2 1 2 2 2 2
4 4 5 5 5 4 3 3 3 3 2 1 0 1 1 1 1 1 1 2 2 2 2 2 2 1 1 2 2 1 1 0 1 1 1 1 1 1 1 1 1 1 1 1
3 3 4 3 2 2 2 2 1 1 1 0 1 2 2 2 2 1 2 2 2 1 1 2 1 2 3 3 2 1 1 1 2 2 2 1 1 0 0 1 1 1 1 1
2 2 2 2 2 2 1 1 0 1 0 2 3 2 2 2 1 1 1 2 2 2 1 0 1 2 3 3 3 1 1 2 3 3 2 2 2 2 1 2 2 1 2 2
2 2 2 3 3 2 2 1 1 1 2 2 2 2 2 2 1 2 2 2 2 2 1 1 2 4 4 3 2 2 3 3 3 3 3 3 3 3 3 3 3 3 2 2
3 3 3 3 3 2 3 2 3 3 2 2 2 2 2 1 1 2 2 2 3 3 2 3 4 5 4 3 3 3 3 3 3 3 4 4 4 4 3 4 3 3 3 3
4 3 3 3 3 4 4 4 4 3 3 3 3 3 3 3 2 2 4 6 6 5 4 5 6 5 3 2 3 4 4 4 5 4 4 4 4 4 3 3 3 3 3 3
4 4 3 3 3 3 3 3 3 4 4 4 5 5 4 3 3 4 5 6 6 5 4 5 4 3 2 3 4 4 5 5 5 5 4 4 3 3 4 4 3 3 3 3
3 3 3 3 3 2 2 3 3 3 4 4 4 5 4 4 5 5 5 5 6 5 4 4 4 4 4 5 5 5 5 5 4 4 4 4 4 4 3 3 4 3 3 3
3 3 2 3 3 3 3 3 3 3 4 5 4 4 4 5 5 5 5 5 5 5 5 4 4 4 4 5 5 5 4 4 5 5 4 4 4 4 4 5 4 4 3 3
Wind_Direction
268 270 267 260 256 256 253 257 259 245 229 216 173 127 95 113 124 122 123 131 128 137 138 143 148 154 163 166 169 176 177 184 186 187 189 192 197 194 188 193 199 192 197 207
264 264 267 267 261 257 255 251 255 255 255 191 101 137 102 99 105 120 122 120 127 133 134 143 148 156 159 165 171 175 180 185 181 181 191 194 191 187 184 189 196 195 202 205
262 262 263 254 253 251 250 248 245 238 225 167 171 57 93 98 108 117 118 113 106 109 133 147 151 153 160 166 171 172 173 174 173 180 188 193 195 185 187 192 196 202 206 201
260 262 253 250 254 257 254 262 262 237 184 156 147 114 95 90 98 106 113 111 119 140 147 152 158 164 163 169 169 169 170 176 175 179 183 181 184 186 193 193 194 201 206 197
254 251 252 251 250 251 252 257 278 240 189 158 140 144 101 75 73 87 113 116 125 135 146 152 164 161 152 157 166 172 177 182 178 177 182 185 182 186 193 192 199 201 190 186
249 255 253 248 277 283 261 231 55 80 102 113 166 222 138 73 64 70 76 92 105 110 106 127 147 152 153 163 172 183 186 186 179 176 181 186 184 184 186 195 205 203 195 184
242 250 258 283 293 282 248 230 74 72 77 88 25 33 57 51 51 58 71 80 83 89 80 81 109 129 149 163 183 187 182 174 173 178 187 187 180 181 186 196 198 195 196 197
237 245 248 345 315 297 39 60 63 62 62 56 62 61 56 44 41 42 73 81 93 90 86 79 86 106 124 121 121 154 157 167 174 177 202 191 172 185 190 194 195 195 198 195
246 244 66 19 21 23 48 52 48 39 53 81 87 77 47 38 33 11 43 61 92 106 99 95 100 120 129 102 94 131 162 172 184 185 183 176 179 187 191 196 202 202 203 203
277 229 248 340 340 352 9 14 8 353 334 130 168 215 277 24 8 342 339 41 85 120 122 112 110 113 115 109 101 134 157 174 177 168 169 158 171 193 199 206 212 206 206 214
263 275 289 284 323 341 344 343 334 319 311 283 228 246 264 297 324 313 299 17 59 94 113 120 123 126 122 115 116 152 174 194 201 195 180 162 151 53 187 229 212 198 216 223
263 283 294 302 309 304 309 306 304 304 313 309 300 260 252 253 314 304 265 206 173 186 196 193 158 131 109 113 129 156 208 211 219 212 190 175 150 97 47 55 70 116 156 173
280 286 294 297 292 290 278 282 289 286 282 288 294 290 229 286 303 297 262 213 210 219 210 209 190 162 131 127 141 198 237 246 244 232 208 194 177 175 164 57 50 70 112 138
286 289 289 290 290 295 285 280 280 279 282 287 295 312 301 283 290 282 264 236 229 221 217 211 194 171 166 164 214 237 245 252 253 249 230 218 203 203 194 186 180 70 44 133
285 285 285 288 298 294 296 289 282 281 286 290 282 286 302 290 291 287 276 268 244 231 218 216 232 280 54 237 244 255 255 256 259 257 246 227 212 209 203 188 178 164 124 105
279 284 291 288 282 282 289 293 291 292 291 298 300 304 300 300 307 302 316 301 234 230 212 194 176 302 271 267 265 262 256 241 243 263 245 215 213 209 199 183 171 173 163 123
274 275 277 278 282 282 285 291 293 297 306 305 312 327 339 325 305 288 302 303 114 136 93 83 39 355 307 286 280 273 267 235 225 247 237 214 216 216 204 194 199 182 167 148
280 284 286 279 287 292 294 296 299 299 291 293 308 347 309 287 291 341 356 85 97 92 79 64 49 359 358 3 328 298 279 243 239 211 183 185 209 229 221 203 196 188 157 160
289 293 296 289 278 271 281 292 303 315 323 315 316 352 23 50 50 77 81 91 100 99 75 58 38 12 48 49 2 294 258 74 70 74 89 131 209 262 257 238 218 178 149 145
299 295 296 304 299 282 268 284 313 324 325 342 86 80 65 55 67 91 86 69 65 38 59 65 65 60 57 45 354 312 314 79 71 62 58 37 26 343 333 128 137 158 135 92
331 335 342 7 7 357 344 336 348 311 333 101 97 88 83 76 61 82 103 91 63 29 25 71 93 61 54 18 329 337 51 67 60 46 45 41 35 41 55 71 76 77 73 66
24 17 34 40 32 22 24 59 107 103 101 101 106 101 93 87 75 78 77 74 85 41 24 63 82 63 40 10 355 19 43 53 49 48 58 55 56 54 49 49 54 59 62 67
38 43 50 52 48 40 45 71 88 89 93 104 110 112 109 76 68 83 86 79 85 68 48 52 64 68 44 354 2 32 38 44 43 45 56 61 55 52 52 53 55 53 52 49
62 61 56 54 60 59 57 64 73 81 84 94 97 93 93 92 80 73 83 87 80 81 65 65 69 60 35 30 35 48 49 48 46 41 46 54 55 51 49 53 57 57 56 50
59 59 59 62 65 68 81 90 95 93 92 97 96 90 89 89 91 82 79 77 84 88 80 76 72 63 60 59 53 55 56 55 54 49 48 46 50 56 58 54 50 46 41 44
76 72 72 66 59 61 81 86 86 91 96 93 90 87 84 82 84 85 87 88 87 90 81 78 72 73 70 63 57 56 57 57 55 56 54 47 51 55 56 51 50 46 42 38
84 80 75 70 69 69 78 82 77 82 87 87 86 84 86 80 78 76 73 73 75 72 67 65 65 65 60 56 57 56 52 48 46 46 47 48 49 46 44 47 44 40 35 28
Height
1443 1437 1436 1436 1436 1435 1438 1440 1447 1449 1448 1446 1446 1447 1450 1452 1455 1458 1461 1463 1466 1470 1473 1477 1480 1484 1487 1490 1493 1496 1498 1500 1502 1504 1505 1507 1508 1509 1510 1511 1512 1513 1514 1515
1449 1440 1437 1438 1434 1433 1434 1435 1439 1442 1446 1442 1446 1449 1451 1454 1457 1459 1462 1464 1467 1470 1472 1475 1479 1482 1486 1488 1491 1494 1496 1498 1500 1501 1503 1504 1505 1506 1507 1509 1510 1511 1511 1512
1455 1443 1441 1446 1434 1432 1433 1431 1434 1443 1444 1443 1446 1449 1452 1455 1458 1460 1462 1465 1467 1469 1472 1475 1477 1480 1483 1486 1489 1491 1493 1495 1497 1499 1500 1501 1502 1503 1504 1505 1506 1507 1508 1508
1456 1454 1462 1438 1425 1425 1428 1430 1429 1434 1439 1443 1447 1451 1454 1456 1458 1461 1464 1466 1468 1470 1472 1474 1476 1479 1481 1484 1486 1489 1491 1492 1494 1495 1497 1498 1499 1500 1501 1502 1502 1503 1504 1505
1457 1456 1449 1434 1427 1426 1431 1436 1433 1435 1439 1444 1447 1451 1454 1457 1459 1461 1464 1466 1467 1469 1471 1473 1475 1477 1478 1481 1484 1486 1488 1490 1491 1492 1493 1494 1495 1496 1497 1498 1499 1500 1501 1502
1456 1461 1456 1441 1429 1427 1432 1442 1439 1440 1443 1446 1448 1452 1457 1459 1460 1461 1464 1465 1467 1469 1471 1472 1474 1475 1476 1479 1481 1483 1485 1486 1488 1489 1490 1491 1492 1493 1494 1495 1496 1497 1498 1498
1456 1457 1446 1436 1432 1431 1445 1449 1443 1445 1447 1450 1453 1456 1459 1460 1461 1462 1464 1465 1467 1469 1470 1471 1471 1473 1475 1477 1479 1481 1483 1484 1485 1486 1487 1488 1489 1490 1491 1492 1493 1493 1495 1496
1450 1455 1453 1440 1437 1442 1446 1445 1446 1448 1450 1453 1455 1457 1459 1460 1462 1463 1463 1465 1466 1467 1469 1470 1470 1471 1473 1474 1477 1478 1480 1481 1482 1483 1484 1485 1486 1487 1488 1489 1490 1491 1492 1492
1445 1449 1446 1445 1445 1447 1446 1448 1449 1450 1452 1454 1456 1457 1459 1460 1461 1462 1463 1464 1465 1466 1468 1469 1469 1470 1471 1472 1474 1475 1476 1477 1479 1480 1481 1482 1483 1484 1485 1486 1487 1488 1488 1489
1445 1444 1444 1446 1446 1447 1448 1450 1451 1452 1453 1454 1456 1457 1459 1460 1461 1462 1463 1464 1464 1465 1466 1467 1468 1469 1469 1470 1471 1472 1473 1474 1475 1477 1478 1479 1480 1481 1482 1483 1484 1485 1485 1485
1447 1446 1446 1447 1448 1448 1450 1450 1451 1453 1453 1454 1455 1457 1458 1459 1460 1461 1462 1462 1463 1464 1464 1465 1466 1467 1468 1468 1469 1470 1470 1471 1473 1474 1474 1475 1477 1478 1479 1480 1481 1481 1481 1482
1449 1449 1450 1449 1449 1450 1450 1451 1452 1453 1453 1453 1454 1456 1457 1458 1459 1459 1460 1460 1461 1462 1463 1463 1464 1465 1465 1466 1466 1467 1468 1469 1470 1471 1472 1472 1473 1475 1476 1477 1478 1478 1478 1479
1447 1447 1448 1448 1448 1448 1450 1451 1452 1452 1452 1452 1453 1454 1455 1456 1457 1458 1458 1459 1459 1460 1460 1461 1461 1462 1463 1463 1464 1465 1466 1467 1468 1468 1469 1470 1470 1471 1472 1473 1474 1475 1475 1475
1447 1447 1447 1447 1446 1447 1448 1449 1449 1450 1450 1450 1451 1452 1453 1454 1454 1455 1456 1456 1457 1457 1458 1459 1459 1460 1460 1461 1462 1463 1464 1464 1465 1465 1465 1466 1467 1468 1469 1469 1470 1470 1471 1472
1446 1446 1446 1445 1444 1446 1446 1446 1446 1447 1448 1448 1449 1450 1451 1451 1452 1453 1454 1454 1454 1455 1455 1456 1457 1457 1458 1459 1460 1460 1461 1461 1461 1461 1462 1462 1463 1464 1465 1466 1466 1467 1467 1468
1446 1445 1444 1444 1444 1445 1445 1445 1445 1445 1446 1446 1447 1448 1448 1449 1450 1451 1451 1451 1452 1452 1453 1454 1455 1455 1456 1457 1457 1458 1458 1457 1458 1458 1459 1459 1459 1460 1461 1462 1463 1463 1464 1465
1443 1443 1443 1443 1443 1444 1444 1444 1444 1444 1444 1445 1445 1446 1446 1447 1447 1448 1449 1450 1450 1451 1452 1452 1453 1453 1454 1454 1455 1455 1455 1455 1455 1456 1456 1456 1457 1457 1458 1459 1460 1460 1461 1461
1442 1442 1442 1443 1442 1442 1443 1443 1444 1444 1444 1444 1444 1444 1445 1445 1446 1447 1447 1448 1448 1449 1450 1451 1451 1451 1452 1452 1452 1452 1452 1453 1453 1453 1454 1454 1454 1455 1456 1457 1457 1457 1458 1459
1440 1440 1441 1441 1441 1442 1442 1443 1443 1443 1443 1443 1443 1443 1443 1444 1445 1446 1447 1447 1448 1449 1449 1449 1450 1450 1450 1450 1450 1450 1451 1451 1452 1452 1452 1453 1453 1453 1454 1454 1455 1455 1456 1457
1440 1439 1439 1439 1439 1440 1441 1441 1441 1441 1442 1442 1442 1442 1443 1444 1445 1446 1446 1447 1448 1448 1449 1449 1449 1449 1449 1449 1449 1449 1450 1450 1451 1451 1451 1451 1451 1451 1452 1452 1453 1454 1455 1455
1439 1439 1439 1439 1439 1439 1440 1440 1440 1441 1441 1442 1442 1443 1443 1444 1445 1446 1446 1446 1447 1448 1448 1449 1448 1448 1448 1448 1449 1449 1449 1449 1450 1450 1451 1451 1450 1451 1451 1451 1452 1453 1453 1454
1439 1439 1439 1440 1440 1440 1440 1440 1440 1441 1442 1442 1443 1444 1444 1445 1445 1446 1446 1447 1447 1447 1448 1448 1448 1448 1448 1449 1449 1449 1449 1449 1449 1450 1450 1451 1451 1451 1451 1451 1451 1452 1452 1452
1440 1440 1440 1441 1441 1441 1441 1441 1441 1442 1442 1443 1443 1444 1445 1445 1446 1446 1447 1447 1447 1447 1448 1448 1448 1448 1449 1449 1449 1449 1449 1449 1450 1450 1450 1450 1451 1450 1450 1451 1451 1451 1451 1451
1441 1441 1442 1442 1443 1443 1442 1442 1442 1442 1443 1443 1444 1445 1445 1446 1446 1447 1447 1447 1447 1448 1449 1449 1449 1449 1449 1449 1450 1450 1450 1450 1450 1450 1450 1450 1450 1451 1451 1450 1450 1450 1450 1450
1442 1443 1443 1444 1444 1444 1444 1444 1444 1444 1444 1445 1445 1446 1446 1447 1447 1448 1448 1448 1449 1449 1449 1450 1450 1450 1450 1450 1450 1450 1450 1450 1450 1450 1450 1451 1451 1451 1451 1450 1450 1450 1450 1450
1444 1444 1445 1445 1445 1445 1446 1446 1446 1446 1446 1447 1447 1448 1448 1448 1449 1449 1449 1449 1450 1450 1450 1451 1451 1451 1451 1451 1451 1451 1451 1451 1451 1451 1451 1451 1451 1451 1451 1451 1450 1450 1450 1449
1445 1446 1446 1447 1447 1447 1447 1448 1448 1448 1449 1449 1449 1450 1450 1450 1450 1450 1451 1451 1451 1452 1452 1452 1452 1452 1452 1452 1452 1452 1452 1452 1451 1451 1452 1452 1452 1452 1451 1451 1451 1450 1449 1449